User: anonymous   Login
Location: Fort Frances
(48.6170°N, 93.4170°W)
Time: 19:12:37
(UTC-06:00)
Language:

Iridium 53 - Orbit

View from above orbital plane
View from above orbital plane
View from above satellite
View from above satellite

Ground track
Ground track

The orbit data is extracted from the following two-line orbital elements,

1 25173U 98010E   14332.54195381  .00000689  00000-0  23898-3 0   532
2 25173 086.3972 019.7739 0002229 109.4361 006.1257 14.34218429878237
Epoch (UTC): 28 November 2014 13:00:24
Eccentricity: 0.0002229
inclination: 86.3972°
perigee height: 776 km
apogee height: 779 km
right ascension of ascending node: 19.7739°
argument of perigee: 109.4361°
revolutions per day: 14.34218429
mean anomaly at epoch: 6.1257°
orbit number at epoch: 87823

The dashed part of the orbit path shows where the satellite is in the earth's shadow,  

DLR